Location: Hauppauge
(40.8260°N, 73.2030°W)
Time: 19:29:11
(UTC-04:00)

Daily predictions for brighter satellites

Satellite Brightness Start Highest point End
(mag) Time Altitude Azimuth Time Altitude Azimuth Time Altitude Azimuth
Cosmos 2173 Rocket 4.2 20:31:36 10° S 20:37:58 85° W 20:44:23 10° N
USA 234 3.3 20:31:51 10° NE 20:38:23 66° SE 20:44:54 10° SW
NOSS 3-2 (C) 4.2 20:34:46 10° SSE 20:39:38 28° ESE 20:44:51 10° NE
Lacrosse 5 rocket 4.2 20:39:15 10° N 20:40:11 11° N 20:41:05 10° NNE
Cosmos 2061 Rocket 4.1 20:36:13 10° S 20:42:37 88° E 20:49:00 10° N
Cosmos 1300 Rocket 3.5 20:42:00 10° N 20:46:23 74° E 20:50:43 10° SSE
Cosmos 1812 3.1 20:43:12 10° SSW 20:47:01 70° W 20:50:52 10° N
Cosmos 371 Rocket 3.8 20:42:36 10° SSW 20:47:23 67° WNW 20:52:12 10° NNE
Cosmos 1833 Rocket 3.8 20:42:36 10° SW 20:48:04 51° WNW 20:53:34 10° NNE
USA 186 2.5 20:45:20 10° S 20:48:24 54° W 20:51:39 10° NNW
Cosmos 1666 4.1 20:45:30 10° NNE 20:48:36 22° ENE 20:51:41 10° SE
Cosmos 1743 4.1 20:49:34 10° NNE 20:52:39 23° ENE 20:55:34 11° SE
Cosmos 1242 Rocket 4.1 20:54:42 10° NNE 20:57:33 21° ENE 21:00:01 12° ESE
Cosmos 1184 Rocket 3.7 20:55:33 10° SSW 20:58:51 54° WNW 21:02:09 10° N
ERS-2 2.7 20:55:42 10° S 20:59:20 59° WSW 21:02:59 10° NNW
Cosmos 2016 Rocket 4.1 20:53:24 10° S 20:59:30 81° W 21:05:40 10° N
COSMOS 2487 2.5 20:59:21 10° SSW 21:02:50 82° WNW 21:06:22 10° NNE
Tsikada Rocket 4.1 20:58:20 10° N 21:04:45 70° E 21:11:08 10° SSE
Thor Agena Rocket 4.3 20:59:54 10° N 21:05:07 60° WNW 21:10:15 10° SSW
Cosmos 1725 Rocket 4.0 21:03:38 10° S 21:09:49 89° E 21:16:03 10° N
Resurs 1-3 4.3 21:05:38 10° S 21:09:55 55° W 21:14:15 10° NNW
CENTAUR R/B 3.6 21:06:28 10° SSE 21:10:40 21° ESE 21:15:13 10° ENE
Shenzhou-11 Module 2.5 21:14:40 10° W 21:17:36 58° N 21:20:33 10° ENE
ATLAS CENTAUR R/B 4.0 21:11:52 10° SSW 21:17:51 66° ESE 21:35:56 10° NE
Cosmos 2082 Rocket 4.2 21:15:28 10° WSW 21:20:29 32° WNW 21:25:35 10° N
ATLAS 3B R/B 3.0 21:13:46 10° SW 21:21:00 79° NW 21:27:56 10° NNE
Helios 1B rocket 4.4 21:19:32 10° ENE 21:21:23 13° E 21:21:43 13° E
ATLAS CENTAUR R/B 2.1 21:18:32 10° NW 21:23:01 57° WSW 21:27:06 13° SSE
Cosmos 2322 Rocket 2.8 21:18:21 10° N 21:23:41 42° ENE 21:27:34 17° SE
Cosmos 2346 Rocket 4.5 21:18:04 10° N 21:24:21 80° E 21:30:31 10° S
SL-08 RB Rocket 4.1 21:23:27 18° SE 21:26:34 46° ENE 21:30:56 10° N
Terra 3.9 21:24:38 10° E 21:26:43 13° ENE 21:28:47 10° NE
Atlas Centaur 2 2.8 21:26:15 10° SW 21:28:33 16° S 21:29:03 15° S
SL-16 R/B 2.6 21:25:23 10° NNW 21:30:55 51° ENE 21:34:44 20° SE
DNEPR-1 R/B 4.0 21:26:59 10° SW 21:31:11 66° NW 21:35:55 10° NNE
Cosmos 1975 2.8 21:28:01 10° N 21:32:05 87° W 21:35:20 15° S
GPS 2-04 Rocket1 4.0 21:29:42 10° WSW 21:33:22 28° SSW 21:35:09 21° SSE
Cosmos 1455 Rocket 4.0 21:30:12 10° NNE 21:34:04 30° ENE 21:36:00 22° ESE
ARGOS 3.1 21:30:24 15° SSE 21:34:50 76° ENE 21:40:15 10° N
ISS -3.1 21:35:29 10° WSW 21:38:43 57° NNW 21:41:57 10° NE
Meteor 1-12 Rocket 4.4 21:36:39 10° N 21:42:38 89° W 21:47:39 15° S
Cosmos 1975 Rocket 2.9 21:38:53 11° S 21:43:07 85° E 21:47:28 10° N
Okean 1 Rocket 4.0 21:39:08 10° NNW 21:43:17 44° W 21:47:24 10° SSW
Aureole 2 Rocket 4.0 21:41:47 10° NNE 21:43:48 16° ENE 21:44:10 16° ENE
USA 32 4.3 21:39:40 10° N 21:44:46 50° E 21:47:40 24° SSE
Cosmos 468 Rocket 4.0 21:41:49 10° SSW 21:47:06 86° WNW 21:52:22 10° NNE
Cosmos 1937 Rocket 3.6 21:42:36 10° NNW 21:47:42 60° ENE 21:50:30 26° SE
Meteor 1-19 Rocket 4.3 21:42:42 10° S 21:48:36 85° E 21:54:33 10° N
CSL-04 DEB 4.4 21:49:26 25° SSE 21:51:50 85° ENE 21:55:59 10° NNW
Cosmos 2233 Rocket 4.3 21:46:28 10° SSW 21:52:34 68° W 21:58:46 10° N
Abrixas rocket 2.0 21:50:28 10° SW 21:53:41 79° SSE 21:56:55 10° ENE
Resurs 01 Rocket 4.0 21:51:13 10° SW 21:54:24 19° W 21:57:35 10° NW
Cosmos 1763 Rocket 3.4 21:53:06 10° SSW 21:58:24 76° ESE 22:03:42 10° NNE
Cosmos 540 Rocket 4.3 21:58:27 28° ESE 21:59:27 30° E 22:03:54 10° NE
Cosmos 1544 Rocket 3.6 21:56:41 10° N 22:01:05 62° E 22:02:48 35° SSE
Cosmos 841 Rocket 3.6 21:57:54 22° S 22:01:10 55° ESE 22:06:19 10° NNE
BREEZE-M R/B 4.0 22:06:04 10° W 22:09:24 32° NNW 22:11:47 10° NE
MetOp-B 4.5 22:06:42 21° S 22:10:19 62° WSW 22:15:38 10° NNW
Tiangong 2 0.9 22:07:19 10° WSW 22:10:28 88° SSE 22:10:50 67° E
BREEZE-M DEB (TANK) 3.8 22:09:04 10° W 22:11:28 31° SSW 22:12:02 29° SSW
SPOT 1/Viking Rocket 3.6 22:09:37 33° SE 22:11:51 65° ENE 22:16:58 10° N
Helios 1A 2.9 22:13:25 44° SSE 22:14:41 77° ENE 22:18:51 10° N
Cosmos 2360 Rocket 2.7 22:10:06 10° NNW 22:15:33 48° ENE 22:17:49 32° ESE
H-2A R/B 2.4 22:12:55 23° S 22:15:53 56° W 22:20:49 10° NNW
Cosmos 1536 Rocket 3.6 22:15:15 43° SSE 22:16:23 58° E 22:20:46 10° NNE
Cosmos 292 Rocket 3.6 22:14:51 30° S 22:17:09 71° ESE 22:21:54 10° NNE
Cosmos 1980 Rocket 4.2 22:13:37 10° NW 22:17:46 21° W 22:21:56 10° SSW
Meteor 1-23 Rocket 4.2 22:15:36 32° SSE 22:18:06 61° E 22:23:36 10° NNE
SJ 16-02 2.4 22:15:12 10° N 22:19:10 31° ENE 22:20:02 29° E
Lacrosse 5 rocket 3.1 22:17:09 10° NNW 22:20:48 26° NNE 22:22:42 18° ENE
Cosmos 2219 Rocket 4.1 22:17:31 10° N 22:21:13 18° NE 22:23:56 13° E
DMSP B5D2-2 4.0 22:16:09 10° NNE 22:21:29 89° ESE 22:24:43 24° SSW
BREEZE M DEB (TANK) 2.6 22:14:37 10° WNW 22:23:05 74° SW 22:23:58 51° SSE
Meteor 2-9 Rocket 4.3 22:18:59 10° NNW 22:24:16 66° W 22:27:03 29° S
Cosmos 1898 Rocket 4.4 22:21:55 10° NNW 22:26:55 42° WSW 22:29:43 23° SSW
Cosmos 1356 3.3 22:28:02 74° SW 22:28:18 83° W 22:31:47 10° N
CZ-2C R/B 3.8 22:24:15 10° NE 22:29:00 27° E 22:29:17 27° E
Cosmos 2084 4.0 22:25:26 10° SW 22:29:40 56° NW 22:33:43 10° NNE
NOSS 3-2 (C) 4.3 22:24:19 10° SW 22:30:05 51° NW 22:36:31 10° NNE
ERS-1 Rocket 3.6 22:27:56 26° SSW 22:30:29 50° W 22:35:22 10° NNW
Cosmos 2333 Rocket 4.1 22:27:01 10° N 22:31:02 19° NE 22:33:41 14° E
Cosmos 2034 Rocket 3.9 22:30:47 33° S 22:33:45 78° E 22:39:55 10° N
COSMOS 2428 3.9 22:29:44 10° N 22:34:42 30° NE 22:36:41 24° E
Cosmos 1513 Rocket 4.4 22:31:26 26° S 22:35:04 83° W 22:41:16 10° N
Centaur D-1AR AC-36 4.4 22:21:58 10° WSW 22:35:56 22° SSW 22:37:34 20° S
Meteor 2-4 Rocket 4.4 22:34:00 14° SSW 22:38:28 51° WNW 22:43:52 10° N
Cosmos 1464 Rocket 4.2 22:34:57 21° SSW 22:39:26 70° W 22:45:49 10° N
Meteor 1-29 3.2 22:36:37 10° NNE 22:39:40 63° NE 22:39:40 63° NE
Cosmos 1125 Rocket 4.1 22:35:12 10° N 22:40:14 44° ENE 22:41:24 38° E
Cosmos 1833 4.2 22:39:25 24° SSW 22:43:04 87° WNW 22:48:48 10° NNE
SPOT 5 3.0 22:42:31 43° SSW 22:43:37 56° W 22:48:03 10° NNW
Landsat 7 3.8 22:43:59 51° S 22:45:08 75° WSW 22:49:55 10° NNW
Okean 2 3.3 22:46:49 70° E 22:46:49 70° E 22:50:57 10° NNE
Cosmos 1340 Rocket 4.0 22:45:03 25° SW 22:46:50 40° WNW 22:50:42 10° N
CARTOSAT-1 3.4 22:48:41 72° SSE 22:49:07 89° WSW 22:53:28 10° NNW
Shenzhou-11 Module 4.0 22:50:50 10° WNW 22:52:16 25° WNW 22:52:16 25° WNW
Cosmos 836 Rocket 4.3 22:54:52 59° S 22:55:46 75° ESE 23:01:00 10° NNE
Helios 1B rocket 3.1 22:52:56 10° N 22:56:58 51° WNW 22:58:04 39° WSW
Cosmos 1356 Rocket 3.5 22:57:33 67° ENE 22:57:33 67° ENE 23:01:33 10° NNE
YAOGAN 11 4.0 22:58:02 75° ESE 22:58:18 79° ENE 23:02:48 10° N
CENTAUR R/B 2.8 22:54:32 10° SW 23:00:27 67° NW 23:07:19 10° NNE
IGS 5A 3.6 23:00:24 63° WSW 23:00:34 64° W 23:04:43 10° NNW
Cosmos 2322 3.6 22:55:13 10° NNW 23:00:59 82° ENE 23:02:12 57° SE
Cosmos 2297 Rocket 4.4 23:03:32 11° E 23:03:32 11° E 23:04:14 10° ENE
Terra 1.8 23:03:13 64° SSW 23:03:49 74° WSW 23:08:36 10° NNW
Cosmos 1634 Rocket 4.2 23:02:43 48° SE 23:03:54 55° E 23:10:04 10° NNE
Cosmos 2227 Rocket 4.2 23:06:14 14° E 23:06:14 14° E 23:07:52 10° ENE
Cosmos 2322 Rocket 3.7 23:02:52 10° NW 23:07:28 27° WSW 23:09:24 22° SW
CZ-4C R/B 3.4 23:00:47 10° NNW 23:07:44 51° NE 23:11:22 31° ESE
Cosmos 1606 Rocket 4.4 23:04:34 10° N 23:08:24 40° ENE 23:08:24 40° ENE
Cosmos 2237 Rocket 3.9 23:06:43 10° N 23:11:03 22° NE 23:13:07 18° E
Cosmos 1066 Rocket 3.9 23:10:55 67° SSE 23:11:35 80° E 23:17:01 10° NNE
Cosmos 1025 Rocket 3.1 23:12:52 74° W 23:12:53 74° W 23:17:16 10° N
Meteor 1-22 Rocket 4.4 23:09:19 10° N 23:14:31 48° ENE 23:14:53 47° E
SL-16 R/B 3.9 23:10:21 10° NW 23:14:36 22° W 23:16:36 18° SW
ISS -0.7 23:13:36 10° NW 23:15:45 16° NNW 23:17:52 10° NNE
CZ-2C R/B 3.0 23:15:51 65° S 23:16:37 80° WSW 23:22:11 10° NNW
Spot 4 4.0 23:19:53 61° ENE 23:19:56 61° ENE 23:24:43 10° N
Cosmos 1766 4.5 23:19:15 10° N 23:22:05 36° NE 23:22:05 36° NE
Cosmos 2237 4.3 23:22:26 10° NNW 23:28:05 61° WSW 23:28:45 57° SW
Abrixas rocket 4.5 23:27:34 10° WNW 23:29:39 24° NW 23:29:39 24° NW
Cosmos 2219 3.2 23:30:43 65° ESE 23:30:45 65° ESE 23:36:27 10° NNE
COBE Rocket 4.5 23:26:55 10° NNE 23:30:37 43° ENE 23:30:37 43° ENE
H-2A R/B 3.9 23:37:08 21° ENE 23:37:08 21° ENE 23:40:08 10° NNE
Okean 1-7 Rocket 3.9 23:39:29 67° NW 23:39:29 67° NW 23:43:44 10° N
Cosmos 1892 Rocket 4.2 23:42:44 51° NNE 23:42:44 51° NNE 23:46:04 10° NNE
Cosmos 1092 Rocket 4.4 23:42:22 10° NNW 23:48:32 54° W 23:49:52 46° SW
Cosmos 2333 4.3 23:48:47 10° NNW 23:54:21 61° WSW 23:54:27 61° WSW
